Home   Weather   Nordhorn   Past weeks

Flag for Germany Past Weather in Nordhorn, Lower Saxony, Germany — Yesterday and Last 2 Weeks

Now
25 °F

Sunny.


Feels Like: 25 °F
Forecast: 22 / 34 °F
Wind: No wind

Location: Twenthe

Current Time: Dec 5, 2016 at 11:47:11 am

Latest Report: Dec 5, 2016 at 10:00 am


Visibility: 14 mi

Pressure: 30.34 "Hg

Humidity: 91%

Dew Point: 23 °F

Location of NordhornLocation

Past Weather in Nordhorn — Graph

°F

Nordhorn Temperature Yesterday

Maximum temperature yesterday: 38 °F (at 2:00 pm)
Minimum temperature yesterday: 22 °F (at 6:00 am)
Average temperature yesterday: 28 °F

High & Low Weather Summary for the Past Weeks

 TemperatureHumidityPressure
High58 °F (Nov 21, 8:00 pm)100% (Nov 21, 2:00 am)30.61 "Hg (Nov 21, 2:00 am)
Low18 °F (Nov 29, 8:00 am)55% (Nov 20, 5:00 pm)29.18 "Hg (Nov 20, 1:00 pm)
Average38 °F87%30.16 "Hg
* Reported Nov 20 10:00 am — Dec 5 10:00 am, Nordhorn, Weather by CustomWeather, © 2016

Note: Actual official high and low records may vary slightly from our data, if they occured in-between our weather recording intervals... More about our weather records

Advertising

Nordhorn Weather History for the Previous 24 Hours

Scroll right to see more
 ConditionsComfort  
Time TempWeatherWind HumidityBarometerVisibility
10:00 am
Mon, Dec 5
25 °FSunny.No wind91%30.34 "Hg14 mi
9:00 am21 °FSunny.1 mph95%30.34 "Hg11 mi
8:00 am20 °FClear.1 mph94%30.33 "Hg12 mi
7:00 am20 °FClear.1 mph91%30.33 "Hg13 mi
6:00 am21 °FClear.1 mph89%30.33 "Hg17 mi
5:00 am20 °FClear.1 mph86%30.33 "Hg17 mi
4:00 am21 °FClear.1 mph88%30.34 "Hg17 mi
3:00 am24 °FClear.1 mph81%30.34 "Hg19 mi
2:00 am25 °FClear.1 mph80%30.34 "Hg19 mi
1:00 am24 °FClear.1 mph80%30.35 "Hg22 mi
12:00 am24 °FClear.1 mph80%30.36 "Hg22 mi
11:00 pm
Sun, Dec 4
27 °FClear.1 mph73%30.37 "Hg25 mi
10:00 pm31 °FClear.2 mph68%30.37 "Hg22 mi
9:00 pm29 °FClear.1 mph73%30.37 "Hg25 mi
8:00 pm28 °FClear.1 mph81%30.37 "Hg16 mi
7:00 pm27 °FClear.1 mph86%30.37 "Hg12 mi
6:00 pm27 °FClear.2 mph89%30.37 "Hg9 mi
5:00 pm31 °FClear.1 mph84%30.37 "Hg12 mi
4:00 pm36 °FSunny.1 mph74%30.36 "Hg19 mi
3:00 pm38 °FSunny.2 mph68%30.37 "Hg19 mi
2:00 pm38 °FSunny.2 mph68%30.37 "Hg18 mi
1:00 pm37 °FSunny.2 mph71%30.38 "Hg17 mi
12:00 pm34 °FSunny.1 mph83%30.39 "Hg12 mi
11:00 am31 °FFog.1 mph96%30.40 "Hg6 mi
Weather by CustomWeather, © 2016

See weather overviewHow to use our weather pages